TimeCEST,TemperatureF,Dew PointF,Humidity,Sea Level PressureIn,VisibilityMPH,Wind Direction,Wind SpeedMPH,Gust SpeedMPH,PrecipitationIn,Events,Conditions,WindDirDegrees,DateUTC
12:00 AM,69.8,60.8,73,30.06,-9999.0,NE,5.8,-,N/A,,Clear,40,2013-08-05 22:00:00
12:30 AM,69.8,60.8,73,30.06,-9999.0,NNE,4.6,-,N/A,,Clear,30,2013-08-05 22:30:00
1:00 AM,68.0,60.8,78,30.04,-9999.0,ENE,5.8,-,N/A,,Clear,60,2013-08-05 23:00:00
1:30 AM,66.2,60.8,83,30.06,-9999.0,Variable,2.3,-,N/A,,Clear,0,2013-08-05 23:30:00
2:00 AM,68,60,68,30.04,19,NNW,2.2,,,,,330,2013-08-06 00:00:00
2:00 AM,68.0,60.8,78,30.04,-9999.0,Variable,2.3,-,N/A,,Clear,0,2013-08-06 00:00:00
2:30 AM,68.0,60.8,78,30.04,-9999.0,Variable,1.2,-,N/A,,Clear,0,2013-08-06 00:30:00
3:00 AM,66.2,60.8,83,30.04,-9999.0,ENE,3.5,-,N/A,,Clear,60,2013-08-06 01:00:00
3:30 AM,66.2,60.8,83,30.04,-9999.0,ENE,9.2,-,N/A,,Clear,60,2013-08-06 01:30:00
4:00 AM,66.2,60.8,83,30.04,-9999.0,ENE,5.8,-,N/A,,Clear,60,2013-08-06 02:00:00
4:34 AM,64.4,60.8,88,30.01,-9999.0,ENE,6.9,-,N/A,,Clear,70,2013-08-06 02:34:00
5:00 AM,66.2,60.8,83,30.04,-9999.0,ENE,9.2,-,N/A,,Clear,60,2013-08-06 03:00:00
5:30 AM,66.2,60.8,83,30.04,-9999.0,NE,5.8,-,N/A,,Clear,50,2013-08-06 03:30:00
6:00 AM,66.2,60.8,83,30.04,-9999.0,NE,3.5,-,N/A,,Clear,40,2013-08-06 04:00:00
6:30 AM,66.2,60.8,83,30.04,-9999.0,East,6.9,-,N/A,,Clear,80,2013-08-06 04:30:00
7:00 AM,68.0,60.8,78,30.04,-9999.0,ENE,5.8,-,N/A,,Clear,60,2013-08-06 05:00:00
7:30 AM,69.8,62.6,78,30.04,-9999.0,Variable,1.2,-,N/A,,Clear,0,2013-08-06 05:30:00
8:00 AM,72,62,63,30.02,19,NNW,2.2,,,,Scattered Clouds,330,2013-08-06 06:00:00
8:00 AM,71.6,62.6,73,30.04,-9999.0,Variable,1.2,-,N/A,,Clear,0,2013-08-06 06:00:00
8:30 AM,75.2,62.6,65,30.04,-9999.0,ENE,4.6,-,N/A,,Clear,70,2013-08-06 06:30:00
9:00 AM,77.0,64.4,65,30.04,-9999.0,ENE,8.1,-,N/A,,Clear,70,2013-08-06 07:00:00
9:30 AM,78.8,64.4,61,30.04,-9999.0,ENE,6.9,-,N/A,,Clear,70,2013-08-06 07:30:00
10:00 AM,80.6,64.4,58,30.04,-9999.0,East,6.9,-,N/A,,Clear,100,2013-08-06 08:00:00
10:30 AM,82.4,64.4,54,30.04,-9999.0,East,6.9,-,N/A,,Clear,90,2013-08-06 08:30:00
11:00 AM,84.2,64.4,51,30.04,-9999.0,SSE,6.9,-,N/A,,Clear,160,2013-08-06 09:00:00
11:30 AM,86.0,64.4,48,30.04,-9999.0,SSE,9.2,-,N/A,,Clear,150,2013-08-06 09:30:00
12:00 PM,86.0,64.4,48,30.04,-9999.0,South,9.2,-,N/A,,Clear,180,2013-08-06 10:00:00
12:30 PM,87.8,64.4,46,30.01,-9999.0,South,6.9,-,N/A,,Clear,170,2013-08-06 10:30:00
1:00 PM,87.8,64.4,46,30.01,-9999.0,South,5.8,-,N/A,,Clear,190,2013-08-06 11:00:00
1:30 PM,89.6,66.2,46,30.01,-9999.0,South,8.1,-,N/A,,Clear,180,2013-08-06 11:30:00
2:00 PM,90,65,34,29.95,19,South,6.7,,,,,180,2013-08-06 12:00:00
2:00 PM,89.6,64.4,43,30.01,-9999.0,South,6.9,-,N/A,,Clear,170,2013-08-06 12:00:00
2:30 PM,89.6,64.4,43,29.98,-9999.0,South,4.6,-,N/A,,Clear,180,2013-08-06 12:30:00
3:00 PM,89.6,64.4,43,29.98,-9999.0,South,5.8,-,N/A,,Clear,180,2013-08-06 13:00:00
3:30 PM,91.4,64.4,41,29.98,-9999.0,South,4.6,-,N/A,,Clear,170,2013-08-06 13:30:00
4:00 PM,93.2,66.2,41,29.98,-9999.0,SSE,6.9,-,N/A,,Clear,150,2013-08-06 14:00:00
4:30 PM,93.2,68.0,44,29.95,-9999.0,SSE,9.2,-,N/A,,Clear,150,2013-08-06 14:30:00
5:00 PM,93.2,64.4,38,29.95,-9999.0,SSE,8.1,-,N/A,,Clear,150,2013-08-06 15:00:00
5:30 PM,93.2,66.2,41,29.95,-9999.0,SE,6.9,-,N/A,,Clear,130,2013-08-06 15:30:00
6:00 PM,91.4,66.2,43,29.95,-9999.0,SSE,9.2,-,N/A,,Clear,150,2013-08-06 16:00:00
6:30 PM,91.4,66.2,43,29.92,-9999.0,SE,8.1,-,N/A,,Clear,130,2013-08-06 16:30:00
7:00 PM,91.4,64.4,41,29.92,-9999.0,SE,6.9,-,N/A,,Clear,140,2013-08-06 17:00:00
7:30 PM,89.6,66.2,46,29.92,-9999.0,SE,4.6,-,N/A,,Clear,130,2013-08-06 17:30:00
8:00 PM,87,67,42,29.87,16,East,6.7,,,,Scattered Clouds,90,2013-08-06 18:00:00
8:00 PM,86.0,68.0,55,29.92,-9999.0,East,4.6,-,N/A,,Clear,100,2013-08-06 18:00:00
8:30 PM,82.4,68.0,62,29.92,-9999.0,East,8.1,-,N/A,,Clear,100,2013-08-06 18:30:00
9:00 PM,82.4,66.2,58,29.92,-9999.0,East,6.9,-,N/A,,Clear,80,2013-08-06 19:00:00
9:30 PM,82.4,66.2,58,29.92,-9999.0,ENE,6.9,-,N/A,,Clear,60,2013-08-06 19:30:00
10:00 PM,82.4,66.2,58,29.92,-9999.0,ENE,6.9,-,N/A,,Clear,60,2013-08-06 20:00:00
10:30 PM,82.4,64.4,54,29.92,-9999.0,ENE,6.9,-,N/A,,Clear,60,2013-08-06 20:30:00
11:00 PM,82.4,64.4,54,29.92,-9999.0,ENE,5.8,-,N/A,,Clear,70,2013-08-06 21:00:00
11:30 PM,80.6,64.4,58,29.89,-9999.0,East,4.6,-,N/A,,Clear,80,2013-08-06 21:30:00